"Pseudo-MPEC" for C1CNEU5

Created 2026 Mar 30 18:35:04 UT using Find_Orb

Click here for an explanation of pseudo-MPECs

 
 Astrometry: 
     C1CNEU5*1C2026 02 26.40609111 01 31.285+17 57 54.00   ~2QAZ 23.52GVNEOCPV00
     C1CNEU5 1C2026 02 26.41173611 01 29.471+17 57 36.18   ~2QAZ 23.17GVNEOCPV00
     C1CNEU5 1C2026 02 26.41733011 01 27.696+17 57 19.44   ~2QAZ       VNEOCPV00
     C1CNEU5 1C2026 02 26.42292211 01 25.964+17 57 02.12   ~2QAZ 23.11GVNEOCPV00
     C1CNEU5 1C2026 02 26.49294111 01 03.860+17 53 26.50   ~2QC5       VNEOCPV00
     C1CNEU5 1C2026 02 26.49402411 01 03.508+17 53 23.14   ~2QC5 23.44GVNEOCPV00
     C1CNEU5 1C2026 02 26.49510611 01 03.169+17 53 20.22   ~2QC5 22.50GVNEOCPV00
     C1CNEU5 1C2026 02 26.49618811 01 02.824+17 53 16.33   ~2QC5 22.62GVNEOCPV00
     C1CNEU5 1C2026 02 27.46340210 56 15.623+17 05 04.60   ~2RBZ 23.20GVNEOCPV00
     C1CNEU5 1C2026 02 27.46437010 56 15.349+17 05 01.61   ~2RBZ 23.24GVNEOCPV00
     C1CNEU5 1C2026 02 27.46533910 56 15.054+17 04 58.51   ~2RBZ 22.78GVNEOCPV00

Station data:
(V00) Kitt Peak-Bok  (N31.963125 W111.600190)  US/Arizona. Measurers T.
   Beuden, V. F. Carvajal, D. Fay, J. B. Fazekas, D. C. Fuls, A. R. Gibbs, A.
   D. Grauer, H. Gröller, J. K. Hogan, R. A. Kowalski, S. M. Larson, G. J.
   Leonard, D. Rankin, R. L. Seaman, F. C. Shelly, K. W. Wierzchoś. 2.25-m
   reflector + 4x4K mosaic CCD.

Orbital elements:  C1CNEU5
   Perihelion 2025 Dec 2.354392 +/- 4.17 TT =  8:30:19.5 (JD 2461011.854392)
Epoch 2026 Feb 27.0 TT = JDT 2461098.5   Earth MOID: 0.0025      AutoNEOCP
M  54.715006040 +/- 8               (J2000 ecliptic)
n   0.631480435 +/- 0.0688          Peri.   71.943313 +/- 1.2
a   1.345538461 +/- 0.0977          Node   344.696616 +/- 0.12
e   0.40134269 +/- 0.0642           Incl.   16.813730 +/- 1.3
P   1.561/570.078d         H 25.45  G  0.15   U 10.9
q 0.805516425 +/- 0.028    Q 1.885560497 +/- 0.223
From 11 observations 2026 Feb. 26-27 (25.4 hr); mean residual 0".19
Residuals in arcseconds: 
260226 V00  .03-  .19+    260226 V00  .16+  .05-    260227 V00  .12-  .13+    
260226 V00  .24-  .31-    260226 V00  .03-  .07-    260227 V00  .10+  .04+    
260226 V00  .16-  .12+    260226 V00  .05-  .35+    260227 V00  .02+  .17-    
260226 V00  .51+  .02-    260226 V00  .15-  .20-    

Ephemerides (geocentric):
Date (UTC) HH   RA             Dec           delta  r     elong  mag " sig PA
---- --------  ------------   ------------  ------ ------ -----  --- --------
2026 03 30 19  09 51 44.165   +02 18 12.86  .50442 1.4168 138.6 26.0 2589  42
2026 03 30 20  09 51 43.495   +02 17 36.99  .50486 1.4170 138.5 26.0 2591  42
2026 03 30 21  09 51 42.833   +02 17 01.16  .50531 1.4173 138.5 26.0 2593  42
2026 03 30 22  09 51 42.178   +02 16 25.39  .50575 1.4175 138.4 26.0 2594  42
2026 03 30 23  09 51 41.530   +02 15 49.66  .50619 1.4177 138.4 26.0 2596  42
2026 03 31 00  09 51 40.889   +02 15 13.98  .50663 1.4180 138.4 26.0 2598  42
2026 03 31 01  09 51 40.256   +02 14 38.35  .50707 1.4182 138.3 26.0 2599  42
2026 03 31 02  09 51 39.629   +02 14 02.77  .50752 1.4184 138.3 26.0 2601  42
2026 03 31 03  09 51 39.009   +02 13 27.24  .50796 1.4187 138.2 26.0 2603  42
2026 03 31 04  09 51 38.397   +02 12 51.75  .50840 1.4189 138.2 26.0 2605  42
2026 03 31 05  09 51 37.791   +02 12 16.32  .50885 1.4191 138.2 26.0 2606  42
2026 03 31 06  09 51 37.192   +02 11 40.93  .50929 1.4194 138.1 26.0 2608  42
2026 03 31 07  09 51 36.601   +02 11 05.59  .50973 1.4196 138.1 26.0 2610  42
2026 03 31 08  09 51 36.016   +02 10 30.30  .51018 1.4198 138.0 26.0 2611  41
2026 03 31 09  09 51 35.439   +02 09 55.05  .51062 1.4201 138.0 26.0 2613  41
2026 03 31 10  09 51 34.868   +02 09 19.86  .51106 1.4203 138.0 26.0 2615  41
2026 03 31 11  09 51 34.304   +02 08 44.71  .51151 1.4205 137.9 26.0 2616  41
2026 03 31 12  09 51 33.748   +02 08 09.61  .51195 1.4208 137.9 26.0 2618  41
2026 03 31 13  09 51 33.198   +02 07 34.55  .51240 1.4210 137.8 26.0 2620  41
2026 03 31 14  09 51 32.655   +02 06 59.55  .51284 1.4212 137.8 26.0 2621  41
2026 03 31 15  09 51 32.119   +02 06 24.59  .51328 1.4215 137.8 26.0 2623  41
2026 03 31 16  09 51 31.590   +02 05 49.68  .51373 1.4217 137.7 26.0 2625  41
2026 03 31 17  09 51 31.067   +02 05 14.81  .51417 1.4219 137.7 26.0 2626  41
2026 03 31 18  09 51 30.552   +02 04 39.99  .51462 1.4222 137.6 26.0 2628  41
2026 03 31 19  09 51 30.043   +02 04 05.22  .51506 1.4224 137.6 26.0 2630  41
2026 03 31 20  09 51 29.542   +02 03 30.50  .51551 1.4226 137.6 26.0 2631  41
2026 03 31 21  09 51 29.047   +02 02 55.82  .51596 1.4229 137.5 26.0 2633  41
2026 03 31 22  09 51 28.559   +02 02 21.18  .51640 1.4231 137.5 26.0 2634  41
2026 03 31 23  09 51 28.077   +02 01 46.60  .51685 1.4233 137.4 26.0 2636  41
2026 04 01 00  09 51 27.603   +02 01 12.06  .51729 1.4236 137.4 26.0 2638  41
2026 04 01 01  09 51 27.135   +02 00 37.56  .51774 1.4238 137.3 26.0 2639  41
2026 04 01 02  09 51 26.674   +02 00 03.12  .51819 1.4240 137.3 26.0 2641  41
2026 04 01 03  09 51 26.220   +01 59 28.71  .51863 1.4242 137.3 26.0 2642  41
2026 04 01 04  09 51 25.773   +01 58 54.36  .51908 1.4245 137.2 26.1 2644  41
2026 04 01 05  09 51 25.332   +01 58 20.05  .51953 1.4247 137.2 26.1 2646  41
2026 04 01 06  09 51 24.898   +01 57 45.78  .51997 1.4249 137.1 26.1 2647  41
2026 04 01 07  09 51 24.471   +01 57 11.56  .52042 1.4252 137.1 26.1 2649  41
2026 04 01 08  09 51 24.050   +01 56 37.38  .52087 1.4254 137.1 26.1 2650  41
2026 04 01 09  09 51 23.636   +01 56 03.25  .52132 1.4256 137.0 26.1 2652  41
2026 04 01 10  09 51 23.229   +01 55 29.17  .52177 1.4259 137.0 26.1 2653  41
2026 04 01 11  09 51 22.828   +01 54 55.13  .52221 1.4261 136.9 26.1 2655  41
2026 04 01 12  09 51 22.434   +01 54 21.13  .52266 1.4263 136.9 26.1 2656  41
2026 04 01 13  09 51 22.047   +01 53 47.18  .52311 1.4266 136.9 26.1 2658  41
2026 04 01 14  09 51 21.666   +01 53 13.28  .52356 1.4268 136.8 26.1 2659  41
2026 04 01 15  09 51 21.292   +01 52 39.41  .52401 1.4270 136.8 26.1 2661  41
2026 04 01 16  09 51 20.925   +01 52 05.60  .52446 1.4273 136.8 26.1 2662  41
2026 04 01 17  09 51 20.564   +01 51 31.82  .52491 1.4275 136.7 26.1 2664  41
2026 04 01 18  09 51 20.210   +01 50 58.09  .52535 1.4277 136.7 26.1 2665  41